Temp
5 6 6 6 6 6 6 6 6 6 6 6 6 6 6 7 7 7 7 6 7 7 7 7 7 7 6 6 6 6 5 7 8 8 9 9 9 9 9 9 9 9 9 8 8
5 5 5 5 5 5 5 6 6 6 6 6 6 6 6 7 7 7 7 7 7 7 7 7 7 6 6 6 6 5 6 8 8 8 8 8 8 8 9 9 9 9 8 8 8
5 5 5 5 6 6 6 6 6 6 6 6 6 6 6 6 7 8 7 7 7 7 7 6 6 6 6 6 6 6 7 7 8 7 7 7 8 8 8 9 9 8 7 7 8
5 5 5 5 5 5 5 5 5 5 5 5 6 6 6 5 5 7 7 7 7 7 7 7 6 6 6 6 6 6 7 7 7 7 7 7 7 8 8 9 8 8 8 7 8
5 5 5 5 5 5 5 5 5 5 5 5 5 5 5 5 7 6 6 6 6 6 6 6 6 6 6 6 6 6 7 7 6 6 6 6 7 7 8 8 8 8 8 7 7
5 6 6 6 6 6 6 5 5 5 5 5 5 5 5 5 6 6 5 5 5 5 5 6 6 5 5 5 5 6 6 6 6 6 6 6 7 6 8 8 8 7 7 7 7
5 5 5 6 6 5 5 5 5 5 5 5 5 5 5 7 5 5 5 5 5 5 5 5 4 4 4 4 4 4 4 5 5 6 6 6 6 8 8 7 8 7 7 7 7
5 5 5 5 5 5 5 5 5 5 4 4 4 4 5 6 5 5 5 4 4 4 4 4 3 3 2 2 3 3 3 3 4 5 5 5 7 8 7 7 7 7 7 7 7
5 5 5 5 5 5 5 5 5 4 4 3 3 3 5 5 5 5 5 4 3 3 3 3 2 2 1 1 1 1 1 2 4 5 5 5 6 6 6 6 6 6 6 6 6
5 5 5 4 4 4 3 3 3 3 3 3 3 3 3 2 2 3 4 3 2 1 0 0 -0 1 1 -1 -1 -1 1 1 2 3 3 4 5 4 5 5 5 6 6 6 6
4 4 4 4 4 4 3 3 2 2 3 2 1 1 1 1 1 1 2 2 1 -1 -1 -2 -1 1 1 2 1 0 -0 1 1 1 1 3 3 3 3 3 4 4 5 5 5
4 4 3 3 3 2 2 2 2 1 2 1 1 1 1 0 0 -1 -2 -0 0 -1 -4 -4 -3 -0 -1 -1 -1 -2 -1 -1 -1 -1 -0 1 2 2 2 3 3 3 5 5 6
3 2 2 2 1 1 1 1 0 -1 -1 0 -1 -1 -1 -2 -1 -2 -4 -3 -2 -1 -4 -5 -1 -2 -3 -3 -3 -4 -3 -4 -2 -3 -2 -1 -0 2 2 2 3 4 5 5 7
1 1 1 1 0 0 -1 -2 -3 -3 -5 -4 -5 -6 -6 -6 -5 -6 -5 -5 -5 -5 -3 -4 -3 -4 -3 -4 -3 -5 -4 -4 -4 -5 -5 -3 -1 -0 0 1 1 3 4 4 4
-0 -0 -1 -1 -2 -3 -4 -5 -8 -8 -13 -7 -8 -9 -9 -8 -8 -7 -7 -6 -6 -6 -5 -5 -5 -5 -5 -3 -5 -4 -5 -4 -4 -5 -5 -4 -3 -1 -1 -1 -1 -0 2 3 3
-2 -3 -3 -4 -5 -6 -8 -9 -10 -10 -16 -11 -11 -10 -9 -10 -9 -8 -6 -7 -7 -6 -5 -5 -5 -5 -4 -5 -5 -4 -5 -5 -5 -5 -5 -5 -4 -4 -1 -1 -2 -1 -0 1 2
-5 -6 -6 -7 -8 -9 -10 -11 -10 -12 -13 -13 -13 -12 -11 -10 -10 -9 -8 -9 -9 -7 -6 -5 -6 -6 -5 -5 -5 -5 -5 -5 -5 -5 -5 -3 -4 -7 -6 -5 -4 -3 -2 -1 0
-7 -8 -9 -10 -11 -11 -12 -12 -13 -14 -14 -14 -13 -13 -13 -12 -12 -12 -10 -11 -11 -10 -9 -7 -5 -6 -6 -5 -5 -5 -5 -5 -6 -6 -6 -5 -6 -8 -8 -7 -6 -5 -3 -2 -1
-9 -10 -11 -11 -11 -12 -12 -13 -14 -15 -14 -14 -14 -14 -14 -13 -13 -13 -13 -13 -13 -13 -12 -12 -9 -8 -7 -6 -5 -5 -5 -5 -5 -7 -5 -7 -10 -10 -9 -8 -7 -6 -5 -3 -2
-10 -11 -12 -13 -13 -13 -12 -14 -15 -15 -14 -14 -14 -14 -14 -14 -14 -14 -14 -14 -15 -14 -13 -13 -12 -11 -9 -7 -6 -5 -5 -5 -5 -6 -6 -8 -9 -11 -9 -8 -7 -6 -4 -3 -3
-11 -12 -13 -13 -13 -12 -14 -15 -14 -14 -14 -15 -15 -15 -15 -15 -14 -14 -15 -15 -15 -14 -14 -13 -13 -12 -11 -12 -12 -8 -7 -6 -6 -6 -6 -7 -11 -13 -11 -10 -8 -7 -6 -5 -4
-12 -13 -13 -13 -11 -14 -15 -15 -15 -15 -15 -15 -15 -15 -15 -15 -15 -15 -15 -15 -15 -14 -14 -14 -13 -13 -13 -13 -13 -13 -13 -10 -9 -9 -9 -9 -13 -13 -12 -11 -10 -9 -8 -7 -6
-13 -14 -13 -13 -14 -14 -15 -15 -15 -15 -15 -15 -15 -16 -15 -15 -15 -15 -15 -15 -15 -14 -14 -14 -14 -14 -13 -13 -13 -14 -14 -13 -12 -11 -13 -11 -14 -14 -13 -11 -11 -10 -9 -8 -7
-13 -13 -14 -14 -15 -14 -14 -15 -15 -15 -15 -16 -16 -15 -15 -15 -16 -16 -15 -15 -15 -14 -14 -14 -14 -14 -14 -15 -15 -16 -15 -14 -13 -14 -14 -15 -14 -13 -12 -12 -10 -10 -9 -8 -7
-13 -14 -14 -15 -15 -15 -15 -15 -15 -15 -16 -16 -15 -16 -16 -16 -15 -16 -16 -15 -15 -15 -14 -14 -14 -15 -15 -15 -15 -16 -17 -16 -15 -15 -15 -15 -15 -15 -14 -13 -11 -10 -9 -9 -8
-13 -14 -15 -15 -15 -15 -15 -16 -16 -15 -16 -16 -16 -16 -16 -16 -16 -16 -16 -16 -16 -15 -15 -15 -15 -14 -16 -16 -15 -17 -18 -18 -17 -16 -16 -15 -15 -16 -16 -15 -14 -13 -10 -8 -8
-14 -14 -15 -15 -15 -15 -16 -17 -17 -16 -16 -16 -16 -16 -15 -16 -16 -16 -16 -16 -16 -15 -15 -15 -15 -15 -16 -16 -15 -16 -21 -20 -20 -19 -18 -18 -18 -15 -14 -13 -13 -12 -11 -9 -8
Height
3110 3108 3106 3104 3102 3100 3099 3098 3097 3095 3094 3094 3093 3092 3091 3091 3090 3091 3093 3093 3092 3093 3094 3095 3096 3097 3098 3100 3102 3103 3105 3104 3106 3107 3109 3110 3112 3113 3115 3117 3119 3120 3121 3123 3126
3107 3104 3102 3100 3098 3096 3094 3093 3091 3090 3089 3088 3087 3087 3086 3086 3086 3086 3089 3087 3088 3088 3090 3091 3092 3093 3094 3095 3097 3098 3098 3100 3103 3104 3105 3107 3109 3110 3112 3113 3116 3117 3119 3119 3121
3104 3101 3099 3096 3094 3092 3090 3088 3086 3085 3083 3082 3081 3081 3080 3079 3080 3081 3081 3082 3083 3084 3085 3086 3086 3087 3089 3090 3091 3091 3092 3097 3098 3100 3101 3102 3104 3106 3107 3110 3113 3116 3115 3114 3116
3100 3097 3094 3092 3089 3087 3085 3083 3081 3079 3077 3075 3074 3073 3073 3073 3077 3073 3074 3075 3076 3078 3078 3079 3081 3082 3083 3084 3085 3086 3089 3092 3094 3095 3096 3098 3099 3101 3101 3108 3109 3110 3109 3109 3111
3095 3092 3089 3087 3084 3081 3078 3076 3074 3072 3070 3069 3067 3065 3064 3063 3069 3069 3070 3070 3071 3071 3072 3074 3075 3077 3077 3078 3079 3079 3084 3086 3088 3089 3091 3092 3094 3095 3095 3103 3103 3104 3104 3106 3107
3091 3087 3084 3080 3077 3074 3071 3068 3066 3064 3062 3060 3058 3056 3054 3054 3060 3060 3061 3062 3065 3066 3067 3069 3070 3071 3070 3071 3072 3072 3076 3078 3079 3082 3083 3085 3087 3085 3090 3098 3096 3098 3099 3100 3100
3085 3081 3078 3074 3070 3067 3064 3060 3058 3055 3053 3051 3048 3043 3038 3051 3050 3051 3052 3054 3056 3057 3058 3061 3061 3063 3061 3063 3063 3065 3068 3068 3069 3075 3076 3078 3075 3073 3086 3086 3087 3090 3092 3093 3094
3079 3075 3071 3067 3063 3059 3056 3052 3048 3046 3043 3041 3038 3033 3020 3039 3037 3040 3040 3042 3046 3048 3050 3051 3051 3053 3052 3054 3055 3057 3059 3057 3060 3068 3069 3071 3060 3070 3074 3077 3080 3081 3083 3084 3086
3073 3069 3064 3060 3055 3052 3048 3043 3039 3035 3033 3032 3027 3024 3013 3021 3024 3026 3025 3027 3032 3036 3038 3041 3041 3041 3042 3044 3047 3045 3045 3048 3056 3059 3060 3060 3054 3060 3065 3068 3070 3072 3075 3076 3078
3068 3062 3057 3051 3046 3042 3039 3033 3027 3023 3020 3020 3016 3019 3013 3011 3012 3015 3013 3013 3018 3022 3025 3027 3027 3027 3027 3029 3024 3035 3038 3039 3043 3049 3050 3050 3048 3053 3057 3058 3060 3063 3067 3069 3070
3060 3054 3048 3042 3036 3031 3030 3025 3021 3015 3009 3008 3009 3006 3004 3002 3002 3004 3006 3006 3007 3009 3007 3012 3017 2998 3003 3014 3024 3028 3031 3033 3036 3041 3043 3043 3041 3046 3049 3051 3053 3056 3057 3057 3059
3051 3045 3041 3035 3028 3022 3017 3013 3009 3005 2996 2999 2996 2991 2991 2990 2987 2990 2996 2997 2997 2993 2999 3004 2991 3002 3008 3013 3017 3021 3024 3025 3031 3035 3035 3036 3034 3038 3042 3045 3047 3043 3042 3042 3043
3043 3037 3032 3028 3019 3013 3006 3001 2994 2989 2987 2979 2981 2978 2977 2976 2972 2977 2981 2984 2984 2986 2986 2985 2986 2995 3000 3004 3007 3010 3014 3021 3028 3030 3031 3031 3025 3030 3035 3035 3032 3033 3032 3031 3029
3035 3026 3021 3016 3011 3001 2994 2988 2983 2978 2979 2977 2970 2970 2968 2965 2967 2965 2966 2976 2977 2975 2983 2983 2983 2986 2992 2994 3001 3001 3011 3018 3023 3026 3027 3026 3020 3024 3027 3027 3024 3025 3025 3023 3021
3026 3016 3009 3000 2996 2990 2984 2977 2973 2972 2979 2972 2966 2964 2961 2963 2960 2959 2960 2959 2963 2967 2973 2967 2972 2979 2985 2985 2994 2998 3004 3011 3017 3019 3021 3020 3022 3015 3018 3019 3018 3016 3016 3016 3016
3016 3007 2999 2995 2987 2979 2973 2969 2969 2973 2969 2967 2964 2961 2960 2958 2957 2956 2956 2955 2957 2958 2961 2965 2970 2973 2976 2983 2989 2995 3001 3006 3011 3016 3013 3009 3016 3014 3014 3014 3014 3012 3012 3012 3012
3009 2999 2990 2983 2976 2972 2968 2968 2970 2969 2971 2968 2963 2961 2960 2957 2956 2954 2953 2951 2952 2952 2952 2958 2961 2968 2973 2977 2983 2987 2993 3001 3006 3005 2999 2999 3008 3009 3009 3009 3009 3009 3009 3009 3009
3003 2994 2987 2979 2974 2968 2967 2968 2969 2974 2973 2970 2967 2964 2961 2958 2957 2955 2953 2952 2952 2952 2950 2951 2957 2958 2963 2967 2969 2975 2981 2981 2988 2990 2992 2997 2999 3003 3005 3006 3005 3005 3005 3005 3006
2998 2991 2984 2980 2974 2968 2968 2968 2976 2975 2975 2971 2967 2965 2964 2962 2960 2957 2955 2955 2955 2953 2953 2949 2949 2949 2951 2958 2964 2966 2969 2977 2979 2982 2985 2993 2996 3003 3003 3002 3002 3002 3003 3003 3003
2994 2988 2982 2976 2972 2969 2968 2974 2978 2978 2976 2974 2971 2970 2967 2964 2962 2958 2958 2959 2957 2955 2954 2953 2951 2949 2947 2951 2953 2958 2967 2972 2970 2976 2979 2987 2992 2995 2999 2998 2998 2997 2998 3000 3000
2995 2988 2984 2981 2979 2974 2974 2979 2980 2979 2977 2976 2973 2972 2971 2968 2965 2962 2963 2962 2961 2958 2956 2954 2954 2953 2949 2954 2950 2953 2957 2961 2962 2963 2965 2979 2993 2993 2992 2993 2993 2994 2994 2996 2998
2995 2989 2988 2986 2979 2979 2980 2981 2982 2979 2978 2976 2975 2973 2971 2968 2966 2966 2965 2964 2962 2961 2959 2957 2956 2956 2956 2957 2956 2954 2956 2955 2957 2960 2962 2965 2989 2989 2990 2990 2991 2991 2991 2992 2994
2997 2994 2993 2990 2982 2985 2986 2984 2983 2980 2979 2976 2975 2974 2971 2969 2969 2967 2966 2965 2963 2961 2960 2960 2959 2958 2957 2959 2958 2958 2960 2954 2957 2958 2966 2968 2984 2984 2985 2987 2989 2989 2989 2989 2990
3000 2998 2995 2992 2991 2990 2988 2987 2985 2983 2982 2978 2978 2974 2971 2970 2969 2968 2966 2964 2963 2961 2960 2960 2961 2961 2962 2963 2963 2966 2964 2956 2960 2962 2973 2974 2979 2981 2981 2981 2983 2984 2985 2985 2987
3002 3000 2999 2996 2994 2993 2991 2989 2987 2984 2983 2980 2979 2975 2973 2971 2969 2968 2967 2966 2964 2963 2962 2962 2963 2964 2964 2965 2963 2965 2963 2965 2971 2970 2972 2975 2977 2979 2978 2978 2978 2980 2982 2983 2984
3005 3004 3002 3000 2998 2995 2992 2989 2987 2984 2982 2980 2979 2977 2976 2973 2970 2968 2967 2966 2965 2964 2963 2963 2964 2965 2966 2966 2965 2967 2973 2975 2975 2974 2972 2971 2974 2976 2978 2978 2977 2976 2975 2977 2979
3008 3006 3004 3002 2999 2996 2992 2989 2985 2982 2982 2980 2979 2978 2976 2973 2971 2970 2969 2968 2966 2964 2962 2963 2963 2964 2967 2967 2968 2971 2979 2978 2978 2978 2972 2974 2977 2971 2972 2975 2974 2972 2972 2974 2976
Wind_Speed
16 17 17 17 18 18 18 19 19 20 20 20 20 20 20 20 19 19 15 17 19 17 16 17 17 17 17 18 20 21 23 22 21 17 14 12 14 16 16 16 16 17 18 17 15
18 19 19 20 20 21 21 21 22 22 22 23 23 23 23 24 24 22 19 20 20 20 19 16 17 17 20 21 23 24 27 21 18 15 14 13 14 15 17 16 15 16 16 17 18
20 21 22 22 22 23 23 24 25 25 26 26 26 26 26 27 26 25 24 23 23 23 22 22 25 23 22 23 25 28 27 22 19 16 15 16 16 18 18 18 14 11 14 21 22
23 24 25 26 27 28 28 28 28 28 28 29 30 30 30 29 25 21 19 23 25 26 29 28 28 24 23 25 27 30 26 23 23 23 22 21 21 22 24 16 16 17 21 24 22
27 27 28 29 30 30 31 32 33 33 33 33 34 34 34 35 30 29 25 17 16 22 26 27 25 24 26 28 29 32 27 27 26 27 26 27 26 27 29 18 22 23 25 24 24
27 28 29 29 30 31 31 32 32 33 34 36 38 41 42 41 35 34 32 33 30 27 28 29 29 30 31 31 33 33 30 31 32 30 31 30 29 33 30 22 28 27 28 28 31
30 31 32 32 33 33 33 34 35 35 36 36 37 41 48 38 39 36 35 30 32 37 39 39 39 35 35 35 36 35 36 37 38 33 32 32 37 41 28 29 30 30 29 31 33
32 33 34 35 36 36 37 38 38 38 37 37 38 42 53 37 39 40 43 42 38 38 35 34 33 32 35 35 34 33 37 41 41 35 37 35 46 40 34 28 27 27 28 31 31
36 37 38 39 39 39 39 41 40 40 40 37 40 41 52 40 37 37 43 44 42 41 41 40 39 38 40 41 39 38 31 35 36 36 34 35 41 32 28 27 27 29 30 31 32
41 42 43 44 44 44 42 41 40 41 41 37 40 37 33 28 25 31 29 35 41 41 43 44 42 46 50 46 38 32 39 43 42 32 35 37 42 34 31 32 33 33 32 33 33
43 44 45 48 48 47 45 43 43 44 45 34 34 39 37 38 38 29 25 28 29 38 48 45 47 64 63 58 51 45 35 38 35 32 32 33 36 33 31 33 33 34 36 39 38
46 46 44 43 45 46 46 45 44 44 49 41 39 41 38 37 41 39 32 34 37 42 39 41 56 55 50 48 48 44 29 29 24 18 25 29 37 33 32 34 34 38 40 42 42
46 46 44 42 43 44 45 46 46 45 43 48 37 31 29 31 39 39 35 35 38 41 42 47 42 46 47 44 41 45 48 33 23 19 21 26 39 36 30 20 26 27 30 33 37
47 48 46 44 42 44 44 44 41 42 24 20 11 9 17 18 17 17 27 35 34 40 35 37 47 23 30 46 40 39 35 28 23 15 11 14 9 7 10 19 30 31 27 24 23
45 46 45 43 39 37 34 32 29 25 3 8 8 8 11 9 14 8 15 36 39 36 36 40 28 42 35 35 30 30 25 28 26 24 15 15 8 8 10 15 12 15 23 20 18
46 45 42 36 31 34 31 23 10 5 5 9 9 14 14 16 12 11 11 19 32 38 33 38 29 21 28 35 32 28 17 17 15 15 9 20 19 4 15 13 6 6 11 15 17
41 38 38 35 34 27 24 8 3 2 14 16 19 19 14 15 14 12 6 1 5 6 39 31 37 28 20 23 30 31 24 8 9 11 9 16 21 8 5 7 7 9 11 14 16
35 33 27 25 23 21 6 2 10 8 16 16 14 12 16 17 10 14 5 8 14 4 0 16 12 29 27 25 30 37 38 10 7 6 5 17 10 8 9 8 9 12 12 13 16
33 25 21 18 14 12 2 13 10 12 15 18 10 15 18 21 9 8 11 12 15 21 7 9 4 8 18 31 25 28 36 27 6 5 7 12 11 15 12 13 13 14 14 14 15
31 23 23 25 23 13 10 19 13 11 12 14 15 14 17 22 17 11 7 16 13 18 15 9 6 6 9 17 28 29 25 18 11 9 5 6 8 10 13 16 14 15 16 15 15
26 24 26 20 10 15 25 17 11 10 11 11 12 11 14 19 14 11 15 12 15 16 17 14 9 9 6 15 6 14 23 14 10 6 4 6 5 8 13 13 13 14 15 16 16
24 28 24 16 17 22 21 13 13 13 12 10 10 12 15 15 10 9 13 13 13 11 11 12 6 6 15 14 20 21 15 11 4 2 4 7 7 10 12 11 10 12 14 15 15
22 21 21 18 29 21 19 16 14 16 19 14 17 15 14 12 6 10 11 7 10 7 8 8 7 4 3 3 13 21 20 18 5 6 9 2 9 15 10 8 6 9 10 14 16
20 15 17 24 21 19 16 21 17 13 14 13 15 16 14 13 10 10 12 8 6 4 3 3 5 7 6 11 9 14 20 21 9 8 7 13 4 13 8 8 8 8 9 10 15
21 20 19 18 18 18 17 18 20 20 15 14 13 18 15 12 11 14 12 7 3 8 6 4 7 11 9 10 11 21 22 20 19 13 7 9 7 9 12 10 9 8 12 13 13
22 19 15 14 15 15 16 20 20 20 14 14 15 13 13 15 12 11 12 11 7 10 5 3 2 5 8 7 9 28 25 17 9 12 7 5 7 10 15 17 13 15 14 13 14
21 18 15 16 19 22 23 23 21 19 7 11 12 13 15 20 14 12 12 14 14 11 4 4 4 5 4 6 2 7 31 21 13 6 9 12 15 21 19 16 17 16 17 18 16
Wind_Direction
301 299 297 295 293 292 290 287 285 284 281 278 277 274 271 268 264 260 255 248 246 245 242 231 230 226 224 224 224 224 226 236 240 246 246 240 236 236 238 238 241 246 250 252 252
302 300 298 297 295 293 289 286 284 281 279 278 275 273 271 270 266 261 254 248 245 244 235 236 231 230 228 225 224 224 229 239 241 247 250 244 237 238 241 243 243 246 250 258 254
307 306 304 300 296 292 290 287 285 282 280 277 274 272 269 269 268 265 257 248 243 241 237 240 227 225 227 230 232 233 236 238 242 243 244 244 242 241 242 241 248 258 250 251 256
305 302 299 297 295 292 290 287 284 281 278 275 273 271 269 266 268 264 260 250 244 239 239 235 226 228 235 239 239 241 245 247 248 250 253 252 249 249 248 246 247 244 246 253 261
307 305 303 301 299 297 293 290 286 283 280 278 276 273 267 262 258 261 255 251 246 239 231 222 227 242 249 248 248 248 249 249 251 252 254 254 254 255 253 249 253 249 251 258 263
315 312 308 306 303 301 298 294 290 286 283 279 276 274 269 265 266 261 256 249 243 237 230 231 243 260 254 246 245 248 246 248 251 251 255 257 257 256 256 257 256 256 258 259 260
312 311 310 308 305 303 301 298 294 291 287 284 278 273 268 272 268 265 261 258 246 242 241 246 254 252 249 244 243 243 247 250 249 250 254 256 257 258 271 262 256 254 256 260 261
314 312 310 308 307 305 303 300 297 293 289 284 280 277 275 276 267 262 259 258 249 247 248 239 236 236 238 238 242 244 249 249 252 251 252 253 260 264 266 257 258 259 260 260 260
315 312 310 307 304 302 301 299 296 293 290 287 283 281 283 282 271 261 253 250 250 245 242 240 236 231 232 233 240 242 242 246 252 252 249 248 258 261 256 254 256 262 262 262 262
315 312 313 314 313 311 309 305 301 298 294 289 283 282 280 284 275 255 251 249 240 237 233 230 223 229 232 225 226 227 237 243 244 244 246 250 254 256 257 261 267 270 267 264 263
315 314 314 313 310 307 304 302 300 297 293 287 284 283 277 276 274 257 247 249 237 230 228 224 220 228 229 236 238 238 241 248 254 247 247 250 257 257 259 264 271 273 274 270 266
316 314 313 311 309 307 305 303 298 293 291 288 286 282 279 271 263 257 247 239 234 226 219 220 229 236 236 236 234 235 236 236 231 225 237 242 251 256 267 278 280 273 269 267 262
317 316 315 313 308 302 297 294 292 290 291 290 288 273 265 254 255 252 241 237 235 232 219 216 234 237 231 231 227 233 235 232 240 247 250 269 275 278 279 266 259 261 266 266 263
322 318 316 312 307 302 298 295 291 287 293 286 257 261 260 262 251 254 227 231 227 229 219 226 235 241 230 230 228 226 233 235 237 239 249 248 274 222 208 256 261 257 254 260 254
322 320 320 318 313 304 301 297 301 295 307 309 283 267 300 252 260 231 234 212 225 230 212 223 225 227 225 231 221 229 229 232 233 240 242 227 250 233 207 214 240 245 232 231 219
327 325 323 319 314 309 310 316 301 260 268 331 335 332 330 323 312 269 267 220 221 230 228 230 236 228 240 231 230 214 201 205 198 198 236 220 212 229 237 226 233 207 206 207 206
329 328 328 324 321 320 323 314 251 64 352 351 352 358 356 350 353 345 301 20 212 249 220 234 227 234 229 218 217 211 193 172 191 194 236 197 197 231 223 208 187 177 181 187 190
337 335 335 331 324 327 349 174 59 30 12 8 4 18 23 12 12 10 332 9 23 249 329 214 202 211 212 208 202 205 192 181 178 181 158 165 174 154 169 166 163 164 171 176 187
348 345 338 351 9 355 1 66 42 21 9 10 20 20 15 13 8 1 41 52 24 36 18 1 193 191 191 191 184 186 195 207 121 121 130 161 125 133 137 152 168 171 177 194 190
358 358 5 9 10 15 94 77 53 25 6 13 21 7 8 12 18 17 43 41 24 17 30 15 318 349 219 202 194 196 202 200 193 162 158 141 139 147 167 158 158 166 175 177 182
4 18 23 21 33 61 71 65 40 10 356 2 7 4 7 5 10 11 26 31 23 24 9 18 7 15 130 54 5 198 204 222 199 188 152 139 99 164 164 150 141 139 151 162 172
14 30 28 30 44 54 46 36 13 22 26 29 16 11 356 353 6 29 21 356 357 5 357 10 14 41 101 77 64 82 53 180 213 120 76 108 132 192 173 153 142 134 136 146 157
25 30 30 29 53 53 52 43 37 32 25 25 14 12 6 14 11 10 9 7 343 353 359 26 357 342 185 337 25 35 28 48 111 137 33 31 150 178 192 184 168 157 145 150 149
26 34 31 42 47 42 42 39 38 32 23 25 14 1 20 28 39 20 17 17 27 13 34 97 70 60 68 74 58 53 43 38 46 72 77 63 59 205 238 244 214 201 187 168 161
28 33 33 30 32 33 30 22 21 18 15 8 14 25 22 11 357 359 5 12 2 22 39 96 85 80 69 76 62 70 55 53 53 59 82 28 6 349 331 325 315 289 225 207 189
29 31 29 31 20 8 10 6 355 349 348 352 6 19 13 356 358 344 352 1 9 358 24 78 119 104 105 153 111 70 50 42 43 40 57 20 332 333 331 324 328 319 293 244 220
24 31 32 26 13 8 5 357 354 350 20 328 343 3 6 26 36 39 37 42 36 28 27 90 102 115 119 178 139 38 14 16 42 30 34 23 340 327 320 320 333 301 296 290 263